This demonstration page uses our WeatherBlox Daily Observations layout. Learn more.

Left ArrowRight Arrow

Hourly Observations for March 8, 2021

Temp ( °F °C ) Dew Point ( °F °C ) Humidity (%) Winds ( mph kmh ) Pressure ( in mb ) Visibility ( mi km ) Precip ( " mm )
12:51 am 00:51 Clear 60 15.6 22 -5.6 23 23 SE 7 11 29.98 1015 10 16 N/A
1:51 am 01:51 Clear 63 17.2 23 -5 22 22 E 12 19 29.94 1014 10 16 N/A
2:51 am 02:51 Clear 63 17.2 23 -5 22 22 E 10 17 29.93 1014 10 16 N/A
3:51 am 03:51 Clear 61 16.1 23 -5 23 23 N N/A 29.97 1015 10 16 N/A
4:51 am 04:51 Clear 60 15.6 23 -5 24 24 E 8 13 29.96 1015 10 16 N/A
5:51 am 05:51 Mostly Clear 63 17.2 23 -5 22 22 ESE 8 13 29.96 1015 10 16 N/A
6:51 am 06:51 Sunny 61 16.1 23 -5 23 23 ESE 12 19 29.99 1016 10 16 N/A
7:51 am 07:51 Mostly Cloudy 65 18.3 23 -5 20 20 ENE 6 9 30.01 1016 10 16 N/A
8:51 am 08:51 Mostly Cloudy 61 16.1 24 -4.4 24 24 WSW 8 13 30.07 1018 10 16 N/A
9:51 am 09:51 Mostly Cloudy 66 18.9 25 -3.9 21 21 E 13 20 30.03 1017 10 16 N/A
10:51 am 10:51 Sunny 75 23.9 24 -4.4 15 15 ENE 15 24 29.99 1016 10 16 N/A
11:51 am 11:51 Sunny 76 24.4 26 -3.3 16 16 E 5 7 29.97 1015 10 16 N/A
12:51 pm 12:51 Sunny 77 25 26 -3.3 15 15 VRB 3 6 29.95 1014 10 16 N/A
1:51 pm 13:51 Sunny 81 27.2 24 -4.4 12 12 NNW 8 13 29.93 1014 10 16 N/A
2:51 pm 14:51 Sunny 83 28.3 24 -4.4 11 11 NNW 8 13 29.90 1013 10 16 N/A
3:51 pm 15:51 Sunny 81 27.2 22 -5.6 11 11 undefined N/A 29.91 1013 10 16 N/A
4:51 pm 16:51 Sunny 81 27.2 20 -6.7 10 10 W 3 6 29.89 1012 10 16 N/A
5:51 pm 17:51 Mostly Sunny 78 25.6 12 -11.1 8 8 W 15 24 29.90 1012 10 16 N/A
6:51 pm 18:51 Clear 74 23.3 9 -12.8 8 8 WNW 12 19 29.92 1013 10 16 N/A
7:51 pm 19:51 Clear 71 21.7 16 -8.9 12 12 NNW 13 20 29.93 1014 10 16 N/A
8:51 pm 20:51 Clear 70 21.1 19 -7.2 14 14 NNW 13 20 29.95 1014 10 16 N/A
9:51 pm 21:51 Clear 68 20 18 -7.8 15 15 NNW 5 7 29.94 1014 10 16 N/A
10:51 pm 22:51 Clear 65 18.3 18 -7.8 16 16 W 8 13 29.96 1014 10 16 N/A
11:51 pm 23:51 Clear 60 15.6 18 -7.8 19 19 WSW 8 13 29.96 1015 10 16 N/A

Powered by AerisWeather